Freeland, MI

3:30 AM EST on December 10, 2016 (GMT -0500)
MBS International

Weather History for KMBS - July, 2013

Change the Weather History Date:

Tuesday, July 23, 2013

  Actual Average Record
Temperature  
Mean Temperature 68 °F 71 °F  
Max Temperature 79 °F 82 °F 97 °F (2012)
Min Temperature 57 °F 60 °F 52 °F (2000)
Degree Days  
Heating Degree Days 0    
Month to date heating degree days 1  
Since 1 June heating degree days 54  
Since 1 July heating degree days 1  
Cooling Degree Days 3    
Month to date cooling degree days 225  
Year to date cooling degree days 438  
Since 1 June cooling degree days 364  
Growing Degree Days 20 (Base 50)    
Moisture  
Dew Point 61 °F    
Average Humidity 67    
Maximum Humidity 87    
Minimum Humidity 46    
Precipitation  
Precipitation T in 0.09 in 0.09 in (2010)
Month to date precipitation 0.38 1.89  
Year to date precipitation 21.27 16.52  
Snow  
Snow 0.00 in - - ()
Month to date snowfall 0.0  
Since 1 June snowfall 0.0  
Since 1 July snowfall 0.0  
Snow Depth 0.00 in    
Sea Level Pressure  
Sea Level Pressure 29.74 in    
Wind  
Wind Speed 13 mph (WNW)    
Max Wind Speed 25 mph    
Max Gust Speed 39 mph    
Visibility 10 miles    
Events Rain    
T = Trace of Precipitation, MM = Missing Value Source: NWS Daily Summary

Daily Weather History Graph

Daily Weather History Graph

Search for Another Location

Airport or City:

Trip Planner

Search our weather history database for the weather conditions in past years. The results will help you decide how hot, cold, wet, or windy it might be!

Date:

Astronomy

Jul. 23, 2013 Rise Set
Actual Time 6:16 AM EDT 9:08 PM EDT
Civil Twilight 5:43 AM EDT 9:41 PM EDT
Nautical Twilight 5:00 AM EDT 10:24 PM EDT
Astronomical Twilight 4:10 AM EDT 11:13 PM EDT
Moon 9:30 PM EDT (7/23) 7:28 AM EDT (7/23)
Length of Visible Light 15h 58m
Length of Day
14h 51m
Full, 99% of the Moon is Illuminated
Jul 23
Full
Jul 29
Last Quarter
Aug 6
New
Aug 14
First Quarter
Aug 20
Full

Hourly Weather History & Observations

Time (EDT) Temp. Dew Point Humidity Pressure Visibility Wind Dir Wind Speed Gust Speed Precip Events Conditions
12:53 AM 72.0 °F 64.0 °F 76% 29.75 in 10.0 mi SSW 6.9 mph - N/A   Clear
1:53 AM 71.1 °F 64.0 °F 78% 29.74 in 10.0 mi South 8.1 mph - N/A   Clear
2:53 AM 71.1 °F 64.9 °F 81% 29.69 in 10.0 mi South 9.2 mph - N/A   Clear
3:53 AM 71.1 °F 64.9 °F 81% 29.71 in 10.0 mi SW 5.8 mph - N/A   Mostly Cloudy
4:53 AM 71.1 °F 64.9 °F 81% 29.68 in 10.0 mi South 5.8 mph - N/A   Partly Cloudy
5:53 AM 71.1 °F 64.9 °F 81% 29.68 in 10.0 mi SSW 4.6 mph - N/A   Partly Cloudy
6:53 AM 71.1 °F 66.0 °F 84% 29.67 in 10.0 mi SW 8.1 mph - N/A   Clear
7:53 AM 72.0 °F 66.9 °F 84% 29.67 in 10.0 mi SSW 10.4 mph - 0.00 in Rain Light Rain
8:53 AM 73.0 °F 68.0 °F 84% 29.68 in 10.0 mi WSW 9.2 mph - 0.00 in   Mostly Cloudy
9:21 AM 73.4 °F 68.0 °F 83% 29.68 in 10.0 mi WSW 6.9 mph - N/A   Mostly Cloudy
9:53 AM 73.0 °F 69.1 °F 87% 29.67 in 10.0 mi WSW 5.8 mph - N/A   Overcast
10:00 AM 73.4 °F 69.8 °F 88% 29.68 in 10.0 mi WSW 6.9 mph - N/A   Overcast
10:14 AM 73.4 °F 69.8 °F 88% 29.68 in 10.0 mi WSW 6.9 mph - N/A   Overcast
10:53 AM 73.9 °F 68.0 °F 82% 29.69 in 10.0 mi NW 12.7 mph - N/A   Overcast
11:16 AM 71.6 °F 66.2 °F 83% 29.71 in 10.0 mi NNW 12.7 mph - N/A   Overcast
11:37 AM 73.4 °F 66.2 °F 78% 29.73 in 10.0 mi NW 10.4 mph - N/A   Overcast
11:53 AM 73.9 °F 64.9 °F 73% 29.72 in 10.0 mi NNW 13.8 mph - N/A   Overcast
12:53 PM 78.1 °F 63.0 °F 60% 29.72 in 10.0 mi NW 20.7 mph 26.5 mph N/A   Mostly Cloudy
1:09 PM 78.8 °F 60.8 °F 54% 29.73 in 10.0 mi NNW 19.6 mph 26.5 mph N/A   Mostly Cloudy
1:53 PM 75.9 °F 59.0 °F 56% 29.73 in 10.0 mi NW 13.8 mph - N/A   Overcast
2:53 PM 77.0 °F 57.0 °F 50% 29.75 in 10.0 mi WNW 16.1 mph - N/A   Scattered Clouds
3:53 PM 75.0 °F 55.0 °F 50% 29.75 in 10.0 mi NNW 18.4 mph 24.2 mph N/A   Mostly Cloudy
4:53 PM 75.0 °F 53.1 °F 46% 29.77 in 10.0 mi NNW 19.6 mph 27.6 mph N/A   Partly Cloudy
5:53 PM 72.0 °F 52.0 °F 49% 29.78 in 10.0 mi NNW 20.7 mph 26.5 mph N/A   Partly Cloudy
6:53 PM 66.9 °F 51.1 °F 57% 29.80 in 10.0 mi NNW 23.0 mph 26.5 mph N/A   Mostly Cloudy
7:53 PM 64.9 °F 48.9 °F 56% 29.83 in 10.0 mi NNW 21.9 mph - N/A   Overcast
8:53 PM 63.0 °F 48.0 °F 58% 29.86 in 10.0 mi NNW 15.0 mph - N/A   Overcast
9:53 PM 62.1 °F 46.9 °F 58% 29.88 in 10.0 mi NNW 9.2 mph - N/A   Overcast
10:53 PM 62.1 °F 48.0 °F 60% 29.91 in 10.0 mi NNW 11.5 mph - N/A   Overcast
11:53 PM 61.0 °F 46.0 °F 58% 29.93 in 10.0 mi North 11.5 mph - N/A   Mostly Cloudy